Location: Unspecified
(0.0000°N, 0.0000°E)
Time: 06:29:10
(UTC+00:00)

Vanguard 2 Rocket - Pass Details

Date: 15 October 2022
Orbit: 555 x 3321 km, 32.9° (Epoch: 06 December)

Event Time Altitude Azimuth Distance (km) Brightness Sun altitude
Rises 21:40:46 0° 308° (NW) 7,267 11.8 -57.7°
Reaches altitude 10° 21:50:02 10° 329° (NNW) 5,958 11.1 -59.9°
Enters shadow 21:54:38 13° 343° (NNW) 5,413 10.7 -61.0°
Maximum altitude 21:58:25 15° 357° (N) 5,078 - -61.9°
Drops below altitude 10° 22:05:26 10° 26° (NNE) 4,886 - -63.5°
Sets 22:11:26 0° 49° (NE) 5,289 - -64.9°
